• In Deutschland
  • Länderverzeichnis
  • Für 7 Tage
  • Wassertemperatur
  • Satellitenkarten
  • Wetterkarte
  • Widgets
  • user-avatar
    Anmelden

    Stündliche Wetter Lubango

    Heute, 18 Februar, Sonntag

    Zeit Temperatur Niederschläge Wind Luftdruck Luftfeuchtigkeit
    00:00 +15°C° 1,3 mm 1 m/S 608 mmHg 93%
    01:00 +15°C° 0 mm 1 m/S 608 mmHg 94%
    02:00 +15°C° 0,6 mm 1 m/S 608 mmHg 93%
    03:00 +14°C° 0,6 mm 0 m/S 608 mmHg 93%
    04:00 +14°C° 0,6 mm 0 m/S 607 mmHg 93%
    05:00 +14°C° 0 mm 0 m/S 607 mmHg 92%
    06:00 +14°C° 0 mm 0 m/S 608 mmHg 90%
    07:00 +15°C° 0 mm 0 m/S 608 mmHg 88%
    08:00 +17°C° 0,3 mm 0 m/S 609 mmHg 79%
    09:00 +21°C° 0,3 mm 1 m/S 610 mmHg 70%
    10:00 +23°C° 0,3 mm 1 m/S 611 mmHg 61%
    11:00 +24°C° 0,9 mm 1 m/S 610 mmHg 58%
    12:00 +25°C° 0,9 mm 1 m/S 610 mmHg 55%
    13:00 +26°C° 0,9 mm 1 m/S 610 mmHg 52%
    14:00 +25°C° 1,1 mm 1 m/S 609 mmHg 54%
    15:00 +25°C° 1,1 mm 2 m/S 609 mmHg 56%
    16:00 +24°C° 1,1 mm 2 m/S 608 mmHg 58%
    17:00 +21°C° 1,4 mm 2 m/S 608 mmHg 66%
    18:00 +20°C° 1,4 mm 2 m/S 608 mmHg 74%
    19:00 +18°C° 1,4 mm 2 m/S 607 mmHg 82%
    20:00 +18°C° 1,3 mm 1 m/S 608 mmHg 85%
    21:00 +18°C° 1,3 mm 1 m/S 608 mmHg 88%
    22:00 +16°C° 1,3 mm 1 m/S 608 mmHg 91%
    23:00 +16°C° 1 mm 1 m/S 608 mmHg 91%

    Morgen, 19 Februar, Montag

    Zeit Temperatur Niederschläge Wind Luftdruck Luftfeuchtigkeit
    00:00 +16°C° 1 mm 1 m/S 608 mmHg 91%
    01:00 +16°C° 1 mm 1 m/S 608 mmHg 91%
    02:00 +16°C° 0,5 mm 1 m/S 608 mmHg 91%
    03:00 +15°C° 0,5 mm 0 m/S 607 mmHg 91%
    04:00 +14°C° 0,5 mm 0 m/S 607 mmHg 91%
    05:00 +15°C° 0,1 mm 0 m/S 608 mmHg 89%
    06:00 +15°C° 0,1 mm 0 m/S 608 mmHg 87%
    07:00 +18°C° 0,1 mm 1 m/S 608 mmHg 84%
    08:00 +19°C° 0,3 mm 1 m/S 609 mmHg 76%
    09:00 +21°C° 0,3 mm 1 m/S 610 mmHg 68%
    10:00 +23°C° 0,3 mm 1 m/S 611 mmHg 59%
    11:00 +24°C° 0,3 mm 1 m/S 611 mmHg 55%
    12:00 +25°C° 0,3 mm 2 m/S 611 mmHg 50%
    13:00 +26°C° 0,3 mm 2 m/S 610 mmHg 46%
    14:00 +26°C° 0,5 mm 2 m/S 610 mmHg 49%
    15:00 +25°C° 0,5 mm 2 m/S 609 mmHg 51%
    16:00 +25°C° 0,5 mm 3 m/S 609 mmHg 54%
    17:00 +22°C° 0,8 mm 3 m/S 608 mmHg 63%
    18:00 +20°C° 0,8 mm 2 m/S 608 mmHg 73%
    19:00 +18°C° 0,8 mm 2 m/S 608 mmHg 82%
    20:00 +17°C° 0,4 mm 2 m/S 608 mmHg 85%
    21:00 +18°C° 0,4 mm 1 m/S 608 mmHg 87%
    22:00 +16°C° 0,4 mm 1 m/S 609 mmHg 90%
    23:00 +16°C° 0,1 mm 1 m/S 608 mmHg 91%

    übermorgen, 20 Februar, Dienstag

    Zeit Temperatur Niederschläge Wind Luftdruck Luftfeuchtigkeit
    00:00 +16°C° 0,1 mm 1 m/S 608 mmHg 91%
    01:00 +15°C° 0,1 mm 1 m/S 608 mmHg 92%
    02:00 +15°C° 0 mm 1 m/S 607 mmHg 92%
    03:00 +15°C° 0 mm 1 m/S 607 mmHg 92%
    04:00 +15°C° 0 mm 1 m/S 607 mmHg 92%
    05:00 +15°C° 0 mm 1 m/S 607 mmHg 90%
    06:00 +15°C° 0 mm 1 m/S 608 mmHg 88%
    07:00 +16°C° 0 mm 1 m/S 608 mmHg 86%
    08:00 +19°C° 0 mm 1 m/S 609 mmHg 75%
    09:00 +20°C° 0 mm 2 m/S 610 mmHg 64%
    10:00 +23°C° 0 mm 2 m/S 611 mmHg 54%
    11:00 +24°C° 0,1 mm 2 m/S 610 mmHg 52%
    12:00 +25°C° 0,1 mm 2 m/S 610 mmHg 49%
    13:00 +25°C° 0,1 mm 2 m/S 610 mmHg 47%
    14:00 +24°C° 0,7 mm 3 m/S 609 mmHg 53%
    15:00 +22°C° 0,7 mm 3 m/S 608 mmHg 59%
    16:00 +21°C° 0,7 mm 3 m/S 608 mmHg 64%
    17:00 +20°C° 0,3 mm 2 m/S 608 mmHg 70%
    18:00 +18°C° 0,3 mm 2 m/S 607 mmHg 77%
    19:00 +17°C° 0,3 mm 2 m/S 607 mmHg 83%
    20:00 +16°C° 0,1 mm 2 m/S 608 mmHg 84%
    21:00 +16°C° 0,1 mm 2 m/S 608 mmHg 86%
    22:00 +16°C° 0,1 mm 1 m/S 609 mmHg 88%
    23:00 +15°C° 0,1 mm 1 m/S 608 mmHg 89%

    21 Februar, Mittwoch

    Zeit Temperatur Niederschläge Wind Luftdruck Luftfeuchtigkeit
    00:00 +15°C° 0,1 mm 1 m/S 608 mmHg 89%
    01:00 +15°C° 0,1 mm 1 m/S 607 mmHg 90%
    02:00 +15°C° 0 mm 1 m/S 607 mmHg 91%
    03:00 +14°C° 0 mm 1 m/S 607 mmHg 91%
    04:00 +14°C° 0 mm 1 m/S 607 mmHg 91%
    05:00 +14°C° 0 mm 1 m/S 607 mmHg 90%
    06:00 +14°C° 0 mm 0 m/S 607 mmHg 89%
    07:00 +14°C° 0 mm 0 m/S 608 mmHg 87%
    08:00 +16°C° 0 mm 0 m/S 609 mmHg 78%
    09:00 +19°C° 0 mm 1 m/S 610 mmHg 69%
    10:00 +21°C° 0 mm 1 m/S 610 mmHg 60%
    11:00 +21°C° 0,1 mm 1 m/S 610 mmHg 61%
    12:00 +20°C° 0,1 mm 2 m/S 609 mmHg 61%
    13:00 +20°C° 0,1 mm 2 m/S 609 mmHg 62%
    14:00 +20°C° 0 mm 2 m/S 608 mmHg 62%
    15:00 +20°C° 0 mm 3 m/S 608 mmHg 61%
    16:00 +20°C° 0 mm 3 m/S 608 mmHg 61%
    17:00 +19°C° 0,1 mm 2 m/S 608 mmHg 67%
    18:00 +17°C° 0,1 mm 2 m/S 608 mmHg 72%
    19:00 +16°C° 0,1 mm 2 m/S 608 mmHg 78%
    20:00 +15°C° 0 mm 2 m/S 608 mmHg 81%
    21:00 +15°C° 0 mm 2 m/S 608 mmHg 83%
    22:00 +14°C° 0 mm 1 m/S 608 mmHg 85%
    23:00 +14°C° 0 mm 1 m/S 607 mmHg 86%

    22 Februar, Donnerstag

    Zeit Temperatur Niederschläge Wind Luftdruck Luftfeuchtigkeit
    00:00 +14°C° 0 mm 1 m/S 607 mmHg 86%
    01:00 +14°C° 0 mm 1 m/S 607 mmHg 86%
    02:00 +14°C° 0,1 mm 1 m/S 606 mmHg 85%
    03:00 +14°C° 0,1 mm 1 m/S 606 mmHg 85%
    04:00 +13°C° 0,1 mm 1 m/S 606 mmHg 84%
    05:00 +14°C° 0,1 mm 1 m/S 606 mmHg 82%
    06:00 +13°C° 0,1 mm 0 m/S 607 mmHg 80%
    07:00 +14°C° 0,1 mm 0 m/S 607 mmHg 78%
    08:00 +18°C° 0,1 mm 1 m/S 608 mmHg 70%
    09:00 +20°C° 0,1 mm 1 m/S 609 mmHg 63%
    10:00 +22°C° 0,1 mm 1 m/S 610 mmHg 56%
    11:00 +23°C° 0,2 mm 1 m/S 609 mmHg 54%
    12:00 +24°C° 0,2 mm 1 m/S 609 mmHg 52%
    13:00 +24°C° 0,2 mm 2 m/S 609 mmHg 50%
    14:00 +23°C° 1 mm 2 m/S 608 mmHg 55%
    15:00 +21°C° 1 mm 2 m/S 607 mmHg 61%
    16:00 +20°C° 1 mm 2 m/S 607 mmHg 66%
    17:00 +20°C° 0,8 mm 1 m/S 606 mmHg 70%
    18:00 +19°C° 0,8 mm 1 m/S 606 mmHg 74%
    19:00 +18°C° 0,8 mm 1 m/S 606 mmHg 77%
    20:00 +18°C° 0,1 mm 1 m/S 606 mmHg 80%
    21:00 +16°C° 0,1 mm 1 m/S 606 mmHg 82%
    22:00 +16°C° 0,1 mm 1 m/S 607 mmHg 85%
    23:00 +15°C° 0,1 mm 1 m/S 606 mmHg 86%

    23 Februar, Freitag

    Zeit Temperatur Niederschläge Wind Luftdruck Luftfeuchtigkeit
    00:00 +15°C° 0,1 mm 1 m/S 606 mmHg 88%
    01:00 +14°C° 0,1 mm 1 m/S 606 mmHg 90%
    02:00 +14°C° 0 mm 1 m/S 605 mmHg 91%
    03:00 +14°C° 0 mm 1 m/S 605 mmHg 92%
    04:00 +13°C° 0 mm 1 m/S 605 mmHg 93%
    05:00 +14°C° 0 mm 1 m/S 605 mmHg 90%
    06:00 +15°C° 0 mm 1 m/S 606 mmHg 87%
    07:00 +14°C° 0 mm 0 m/S 606 mmHg 85%
    08:00 +19°C° 0 mm 1 m/S 607 mmHg 74%
    09:00 +21°C° 0 mm 1 m/S 608 mmHg 63%
    10:00 +23°C° 0 mm 1 m/S 609 mmHg 52%
    11:00 +24°C° 0,2 mm 1 m/S 609 mmHg 50%
    12:00 +25°C° 0,2 mm 1 m/S 609 mmHg 47%
    13:00 +26°C° 0,2 mm 2 m/S 609 mmHg 44%
    14:00 +26°C° 0,5 mm 2 m/S 608 mmHg 46%
    15:00 +25°C° 0,5 mm 2 m/S 608 mmHg 48%
    16:00 +25°C° 0,5 mm 3 m/S 608 mmHg 51%
    17:00 +23°C° 0,2 mm 2 m/S 607 mmHg 58%
    18:00 +20°C° 0,2 mm 2 m/S 607 mmHg 65%
    19:00 +18°C° 0,2 mm 2 m/S 607 mmHg 72%
    20:00 +17°C° 0,4 mm 2 m/S 607 mmHg 76%
    21:00 +16°C° 0,4 mm 1 m/S 607 mmHg 81%
    22:00 +16°C° 0,4 mm 1 m/S 607 mmHg 85%
    23:00 +15°C° 0 mm 1 m/S 607 mmHg 87%
    Mehr zeigen